Key West NAF, FL

11:38 PM EDT on May 23, 2017 (GMT -0400)
Key West Naval Air Station

Weather History for KNQX - January, 2014

Change the Weather History Date:

Tuesday, January 21, 2014

  Actual Average Record
Temperature  
Mean Temperature 68 °F -  
Max Temperature 73 °F 73 °F 82 °F (1990)
Min Temperature 64 °F 64 °F 46 °F (1971)
Cooling Degree Days 4    
Growing Degree Days 18 (Base 50)    
Moisture  
Dew Point 62 °F    
Average Humidity 79    
Maximum Humidity 94    
Minimum Humidity 57    
Precipitation  
Precipitation 0.30 in - - ()
Sea Level Pressure  
Sea Level Pressure 29.99 in    
Wind  
Wind Speed 8 mph (West)    
Max Wind Speed 21 mph    
Max Gust Speed 26 mph    
Visibility 8 miles    
Events Rain    
Averages and records for this station are not official NWS values.
T = Trace of Precipitation, MM = Missing Value Source: NWS Daily Summary

Daily Weather History Graph

Daily Weather History Graph

Search for Another Location

Airport or City:

Trip Planner

Search our weather history database for the weather conditions in past years. The results will help you decide how hot, cold, wet, or windy it might be!

Date:

Astronomy

Jan. 21, 2014 Rise Set
Actual Time 7:12 AM EST 6:04 PM EST
Civil Twilight 6:47 AM EST 6:28 PM EST
Nautical Twilight 6:20 AM EST 6:56 PM EST
Astronomical Twilight 5:52 AM EST 7:23 PM EST
Moon 10:56 PM EST (1/21) 10:17 AM EST (1/21)
Length of Visible Light 11h 40m
Length of Day
10h 52m
Waning Gibbous, 75% of the Moon is Illuminated
Jan 21
Waning Gibbous
Jan 24
Last Quarter
Jan 30
New
Feb 6
First Quarter
Feb 14
Full

Hourly Weather History & Observations

Time (EST) Temp. Dew Point Humidity Pressure Visibility Wind Dir Wind Speed Gust Speed Precip Events Conditions
12:53 AM 68.0 °F 57.0 °F 68% 30.08 in 10.0 mi SSW 4.6 mph - N/A   Partly Cloudy
1:53 AM 68.0 °F 57.0 °F 68% 30.06 in 10.0 mi South 5.8 mph - N/A   Mostly Cloudy
2:53 AM 70.0 °F 57.9 °F 65% 30.04 in 10.0 mi SSW 5.8 mph - N/A   Overcast
3:53 AM 69.1 °F 57.9 °F 68% 30.03 in 10.0 mi South 6.9 mph - N/A   Mostly Cloudy
4:53 AM 70.0 °F 59.0 °F 68% 30.02 in 10.0 mi SSW 8.1 mph - N/A   Scattered Clouds
5:53 AM 71.1 °F 59.0 °F 66% 30.03 in 10.0 mi SSW 9.2 mph - N/A   Overcast
5:59 AM 71.6 °F 59.0 °F 64% 30.03 in 10.0 mi SSW 8.1 mph - N/A   Mostly Cloudy
6:53 AM 71.1 °F 57.9 °F 63% 30.03 in 10.0 mi SSW 9.2 mph - N/A   Mostly Cloudy
7:53 AM 71.1 °F 59.0 °F 66% 30.03 in 10.0 mi SW 9.2 mph - N/A   Mostly Cloudy
8:53 AM 71.6 °F 57.2 °F 60% 30.05 in 10.0 mi NW 11.5 mph - N/A   Mostly Cloudy
9:53 AM 73.0 °F 57.2 °F 57% 30.05 in 10.0 mi North 9.2 mph - N/A   Mostly Cloudy
10:53 AM 70.3 °F 66.2 °F 87% 30.05 in 10.0 mi NE 4.6 mph - N/A   Mostly Cloudy
11:53 AM 72.0 °F 63.0 °F 73% 30.02 in 10.0 mi SSE 5.8 mph - N/A   Mostly Cloudy
12:22 PM 73.4 °F 60.8 °F 65% 30.00 in 10.0 mi SSW 15.0 mph 19.6 mph 0.00 in Rain Light Rain
12:39 PM 69.8 °F 62.6 °F 78% 30.00 in 10.0 mi West 5.8 mph - 0.00 in   Mostly Cloudy
12:53 PM 71.1 °F 63.0 °F 75% 29.99 in 10.0 mi West 11.5 mph 17.3 mph 0.00 in   Mostly Cloudy
1:09 PM 69.8 °F 64.4 °F 83% 29.98 in 6.0 mi West 4.6 mph - 0.00 in Rain Light Rain
1:19 PM 69.8 °F 64.4 °F 83% 29.98 in 2.0 mi WNW 9.2 mph - 0.02 in Rain Rain
1:22 PM 69.8 °F 64.4 °F 83% 29.98 in 0.8 mi West 10.4 mph - 0.04 in Rain Rain
1:27 PM 68.0 °F 64.4 °F 88% 29.97 in 2.0 mi WNW 11.5 mph - 0.15 in Rain Light Rain
1:30 PM 68.0 °F 64.4 °F 88% 29.97 in 5.0 mi WNW 9.2 mph - 0.16 in Rain Light Rain
1:38 PM 68.0 °F 64.4 °F 88% 29.97 in 10.0 mi NW 8.1 mph - 0.16 in   Overcast
1:53 PM 68.0 °F 64.9 °F 90% 29.97 in 10.0 mi NW 10.4 mph - 0.16 in   Overcast
2:01 PM 69.8 °F 64.4 °F 83% 29.97 in 10.0 mi NW 17.3 mph 21.9 mph N/A   Mostly Cloudy
2:10 PM 69.8 °F 64.4 °F 83% 29.96 in 10.0 mi NNW 11.5 mph - N/A   Mostly Cloudy
2:53 PM 70.0 °F 64.9 °F 84% 29.94 in 10.0 mi North 4.6 mph - N/A   Mostly Cloudy
3:24 PM 69.8 °F 64.4 °F 83% 29.96 in 1.0 mi WNW 11.5 mph - 0.03 in Rain Rain
3:27 PM 69.8 °F 64.4 °F 83% 29.96 in 4.0 mi West 12.7 mph - 0.07 in Rain Light Rain
3:30 PM 68.0 °F 64.4 °F 88% 29.96 in 2.0 mi West 15.0 mph - 0.09 in Rain Light Rain
3:38 PM 68.0 °F 64.4 °F 88% 29.96 in 3.0 mi West 15.0 mph 21.9 mph 0.10 in Rain Light Rain
3:42 PM 68.0 °F 64.4 °F 88% 29.96 in 10.0 mi West 15.0 mph 21.9 mph 0.10 in   Overcast
3:53 PM 68.0 °F 64.0 °F 87% 29.96 in 10.0 mi NNW 20.7 mph 24.2 mph 0.10 in   Overcast
4:01 PM 66.2 °F 62.6 °F 88% 29.96 in 1.5 mi NW 16.1 mph 26.5 mph 0.01 in Rain Rain
4:14 PM 66.2 °F 64.4 °F 94% 29.97 in 3.0 mi North 11.5 mph - 0.04 in Rain Rain
4:33 PM 66.2 °F 62.6 °F 88% 29.97 in 7.0 mi North 10.4 mph - 0.04 in Rain Light Rain
4:36 PM 66.2 °F 62.6 °F 88% 29.97 in 10.0 mi North 10.4 mph - 0.04 in   Mostly Cloudy
4:53 PM 66.9 °F 63.0 °F 87% 29.96 in 10.0 mi North 6.9 mph - 0.04 in   Mostly Cloudy
5:53 PM 66.0 °F 62.1 °F 87% 29.98 in 10.0 mi Calm Calm - N/A   Scattered Clouds
6:53 PM 64.4 °F 62.6 °F 94% 29.98 in 10.0 mi Calm Calm - N/A   Scattered Clouds
7:53 PM 64.4 °F 62.6 °F 94% 29.99 in 10.0 mi WSW 3.5 mph - N/A   Clear
8:53 PM - - N/A% 29.99 in 10.0 mi WSW 4.6 mph - N/A   Mostly Cloudy
9:53 PM - - N/A% 29.99 in 10.0 mi WSW 8.1 mph - N/A   Clear
10:53 PM - - N/A% 29.98 in 10.0 mi West 5.8 mph - N/A   Clear
11:53 PM 69.1 °F 62.1 °F 78% 29.98 in 10.0 mi WNW 10.4 mph - N/A   Clear